FW9262 Weather Reports


Display with metric or nautical units.
time (UTC)temp
F
wind
direction
speed
MPH
gust
MPH
rain 1hr
in
rain 24hr
in
rain mn
in
humidity
%
barometer
mb
20260906105815 71 327 0.0 0.0 0.00 0.00 0.00 79 1014.6
20260906105311 71 328 0.0 0.0 0.00 0.00 0.00 79 1014.6
20260906104807 71 327 0.0 0.0 0.00 0.00 0.00 78 1014.9
20260906104306 71 330 0.0 0.0 0.00 0.00 0.00 78 1014.9
20260906103804 72 328 0.0 0.0 0.00 0.00 0.00 77 1014.6
20260906103303 72 329 0.0 0.0 0.00 0.00 0.00 77 1014.6
20260906102759 72 327 0.0 0.0 0.00 0.00 0.00 77 1014.9
20260906102258 72 327 0.0 0.0 0.00 0.00 0.00 76 1014.6
20260906101754 72 327 0.0 0.0 0.00 0.00 0.00 76 1014.6
20260906101248 72 325 0.0 0.0 0.00 0.00 0.00 76 1014.9
20260906100744 72 326 0.0 0.0 0.00 0.00 0.00 75 1014.6
20260906100243 72 326 0.0 0.0 0.00 0.00 0.00 75 1014.9
20260906095738 72 327 0.0 0.0 0.00 0.00 0.00 74 1014.6
20260906095233 72 327 0.0 0.0 0.00 0.00 0.00 75 1014.9
20260906094733 71 328 0.0 0.0 0.00 0.00 0.00 74 1014.9
20260906094228 71 325 0.0 0.0 0.00 0.00 0.00 74 1014.9
20260906093725 70 326 0.0 0.0 0.00 0.00 0.00 76 1014.9
20260906093220 70 326 0.0 0.0 0.00 0.00 0.00 77 1014.9
20260906092715 70 327 0.0 0.0 0.00 0.00 0.00 79 1014.9
20260906092214 70 326 0.0 0.0 0.00 0.00 0.00 80 1014.6
20260906091711 70 326 0.0 0.0 0.00 0.00 0.00 81 1014.9
20260906091207 71 328 0.0 0.0 0.00 0.00 0.00 83 1014.9
20260906090703 71 329 0.0 0.0 0.00 0.00 0.00 83 1014.6
20260906090202 71 329 0.0 0.0 0.00 0.00 0.00 83 1014.9
20260906085701 71 327 0.0 0.0 0.00 0.00 0.00 84 1014.6
20260906085200 71 330 0.0 0.0 0.00 0.00 0.00 84 1014.9
20260906084655 71 331 0.0 0.0 0.00 0.00 0.00 84 1014.9
20260906084155 71 327 0.0 0.0 0.00 0.00 0.00 85 1014.9
20260906083649 71 330 0.0 0.0 0.00 0.00 0.00 85 1014.9
20260906083145 71 328 0.0 0.0 0.00 0.00 0.00 86 1014.9
20260906082640 70 330 0.0 0.0 0.00 0.00 0.00 86 1014.9
20260906082136 70 329 0.0 0.0 0.00 0.00 0.00 86 1014.9
20260906081632 70 331 0.0 0.0 0.00 0.00 0.00 87 1014.9
20260906081126 70 328 0.0 0.0 0.00 0.00 0.00 87 1014.9
20260906080623 70 330 0.0 0.0 0.00 0.00 0.00 87 1014.9
20260906080119 70 331 0.0 0.0 0.00 0.00 0.00 88 1014.9
20260906075618 70 331 0.0 0.0 0.00 0.00 0.00 88 1014.9
20260906075113 70 331 0.0 0.0 0.00 0.00 0.00 88 1015.3
20260906074609 70 329 0.0 0.0 0.00 0.00 0.00 88 1015.3
20260906074108 70 329 0.0 0.0 0.00 0.00 0.00 88 1015.3
20260906073608 70 330 0.0 0.0 0.00 0.00 0.00 88 1014.9
20260906073104 70 328 0.0 0.0 0.00 0.00 0.00 88 1015.3
20260906072558 70 329 0.0 0.0 0.00 0.00 0.00 88 1015.3
20260906072054 70 328 0.0 0.0 0.00 0.00 0.00 88 1014.9
20260906071550 70 328 0.0 0.0 0.00 0.00 0.00 88 1014.9
20260906071039 70 327 0.0 0.0 0.00 0.00 0.00 88 1014.9
20260906070536 70 328 0.0 0.0 0.00 0.00 0.00 88 1014.9
20260906070032 70 328 0.0 0.0 0.00 0.00 0.00 88 1015.3
20260906065531 70 327 0.0 0.0 0.00 0.00 0.00 88 1014.9
20260906065027 70 327 0.0 0.0 0.00 0.00 0.00 88 1014.9
20260906064522 70 330 0.0 0.0 0.00 0.00 0.00 88 1014.9
20260906064017 70 330 0.0 0.0 0.00 0.00 0.00 87 1014.9
20260906063512 70 328 0.0 0.0 0.00 0.00 0.00 87 1014.9
20260906063008 70 327 0.0 0.0 0.00 0.00 0.00 87 1014.9
20260906062503 70 327 0.0 0.0 0.00 0.00 0.00 87 1014.9
20260906061957 70 327 0.0 0.0 0.00 0.00 0.00 87 1015.3
20260906061453 70 327 0.0 0.0 0.00 0.00 0.00 87 1015.3
20260906060947 71 326 0.0 0.0 0.00 0.00 0.00 86 1015.3
20260906060444 71 326 0.0 0.0 0.00 0.00 0.00 86 1014.9
20260906055941 71 326 0.0 0.0 0.00 0.00 0.00 86 1014.9
20260906055436 71 326 0.0 0.0 0.00 0.00 0.00 86 1015.3
20260906054932 71 327 0.0 0.0 0.00 0.00 0.00 86 1015.3
20260906054426 71 326 0.0 0.0 0.00 0.00 0.00 86 1015.3
20260906053922 72 322 0.0 0.0 0.00 0.00 0.00 86 1015.3
20260906053418 72 317 0.0 0.0 0.00 0.00 0.00 85 1015.3
20260906052914 72 284 0.0 0.0 0.00 0.00 0.00 85 1015.3
20260906052410 72 319 0.0 0.0 0.00 0.00 0.00 85 1015.3
20260906051907 72 319 0.0 0.0 0.00 0.00 0.00 84 1015.6
20260906051406 72 321 0.0 0.0 0.00 0.00 0.00 84 1015.6
20260906050902 72 318 0.0 0.0 0.00 0.00 0.00 83 1015.3
20260906050357 73 311 0.0 0.0 0.00 0.00 0.00 83 1015.3
20260906045855 72 317 0.0 0.0 0.00 0.00 0.00 82 1015.3
20260906045349 72 314 0.0 0.0 0.00 0.00 0.00 81 1015.3
20260906044846 73 318 0.0 0.0 0.00 0.00 0.00 81 1015.3
20260906044346 73 319 0.0 0.0 0.00 0.00 0.00 81 1015.3
20260906043842 73 319 0.0 0.0 0.00 0.00 0.00 80 1015.3
20260906043338 73 317 0.0 0.0 0.00 0.00 0.00 80 1015.3
20260906042833 72 320 0.0 0.0 0.00 0.00 0.00 80 1015.6
20260906042331 72 322 0.0 0.0 0.00 0.00 0.00 80 1015.6
20260906041827 72 322 0.0 0.0 0.00 0.00 0.00 79 1015.6
20260906041323 73 321 0.0 0.0 0.00 0.00 0.00 79 1015.3
20260906040823 73 319 0.0 0.0 0.00 0.00 0.00 79 1015.6
20260906040318 73 321 0.0 0.0 0.00 0.00 0.00 79 1015.3
20260906035813 73 320 0.0 0.0 0.00 0.00 0.00 78 1015.3
20260906035308 73 322 0.0 0.0 0.00 0.00 0.00 77 1015.3
20260906034803 73 323 0.0 0.0 0.00 0.00 0.00 76 1014.9
20260906034258 73 322 0.0 0.0 0.00 0.00 0.00 76 1014.9
20260906033754 73 320 0.0 0.0 0.00 0.00 0.00 75 1014.9
20260906033253 73 310 0.0 0.0 0.00 0.00 0.00 75 1014.9
20260906032750 73 317 0.0 0.0 0.00 0.00 0.00 74 1014.9
20260906032250 73 324 0.0 0.0 0.00 0.00 0.00 74 1014.9
20260906031745 74 292 0.0 1.0 0.00 0.00 0.00 73 1014.9
20260906031241 74 321 0.0 0.0 0.00 0.00 0.00 74 1014.6
20260906030740 74 319 0.0 0.0 0.00 0.00 0.00 74 1014.9
20260906030236 74 299 1.0 3.0 0.00 0.00 0.00 73 1014.6
20260906025735 74 289 1.0 1.0 0.00 0.00 0.00 72 1014.9
20260906025229 74 336 0.0 0.0 0.00 0.00 0.00 72 1014.6
20260906024728 74 349 0.0 1.0 0.00 0.00 0.00 72 1014.6
20260906024228 74 324 1.0 2.0 0.00 0.00 0.00 72 1014.6
20260906023724 75 269 2.0 2.0 0.00 0.00 0.00 71 1014.9
20260906023219 75 296 1.0 1.0 0.00 0.00 0.00 69 1014.9
20260906022714 75 333 1.0 2.0 0.00 0.00 0.00 68 1014.9
20260906022209 75 334 1.0 2.0 0.00 0.00 0.00 66 1014.9
20260906021706 75 328 0.0 2.0 0.00 0.00 0.00 64 1014.9
20260906021204 75 281 2.0 3.0 0.00 0.00 0.00 63 1014.9
20260906020659 76 325 1.0 2.0 0.00 0.00 0.00 63 1014.9
20260906020154 76 308 2.0 3.0 0.00 0.00 0.00 61 1014.9
20260906015648 76 319 1.0 3.0 0.00 0.00 0.00 61 1014.6
20260906015147 77 301 1.0 4.0 0.00 0.00 0.00 61 1014.6
20260906014647 77 338 0.0 1.0 0.00 0.00 0.00 64 1014.6
20260906014143 77 324 0.0 3.0 0.00 0.00 0.00 62 1014.6
20260906013638 77 256 3.0 4.0 0.00 0.00 0.00 64 1014.9
20260906013134 77 307 3.0 7.0 0.00 0.00 0.00 61 1014.9
20260906012633 78 236 3.0 4.0 0.00 0.00 0.00 62 1014.9
20260906012128 78 344 2.0 6.0 0.00 0.00 0.00 63 1014.9
20260906011624 78 332 1.0 2.0 0.00 0.00 0.00 62 1014.9
20260906011119 79 340 1.0 4.0 0.00 0.00 0.00 60 1014.9
20260906010614 78 261 2.0 4.0 0.00 0.00 0.00 56 1014.6
20260906010110 79 178 4.0 6.0 0.00 0.00 0.00 52 1014.6
20260906005610 79 311 2.0 2.0 0.00 0.00 0.00 52 1014.6
20260906005109 79 278 2.0 3.0 0.00 0.00 0.00 54 1014.6
20260906004608 79 300 2.0 4.0 0.00 0.00 0.00 54 1014.6
20260906004103 79 212 2.0 4.0 0.00 0.00 0.00 52 1014.6
20260906003558 79 183 2.0 4.0 0.00 0.00 0.00 53 1014.6
20260906003054 79 16 2.0 3.0 0.00 0.00 0.00 52 1014.6
20260906002549 78 295 1.0 3.0 0.00 0.00 0.00 58 1014.6
20260906002044 79 263 3.0 3.0 0.00 0.00 0.00 63 1014.6
20260906001539 81 271 2.0 4.0 0.00 0.00 0.00 60 1014.6
20260906001033 80 235 4.0 6.0 0.00 0.00 0.00 63 1014.9
20260906000529 80 263 3.0 6.0 0.00 0.00 0.00 63 1014.9
20260906000024 80 261 2.0 7.0 0.00 0.00 0.00 62 1014.6
20260905235518 81 278 4.0 6.0 0.00 0.00 0.00 60 1014.6
20260905235013 80 218 2.0 4.0 0.00 0.00 0.00 61 1014.6
20260905234508 80 240 3.0 7.0 0.00 0.00 0.00 63 1014.6
20260905234002 80 309 4.0 6.0 0.00 0.00 0.00 64 1014.6
20260905233458 79 298 4.0 6.0 0.00 0.00 0.00 65 1014.6
20260905232956 80 1 2.0 4.0 0.00 0.00 0.00 64 1014.6
20260905232453 80 248 2.0 7.0 0.00 0.00 0.00 63 1014.6
20260905231948 81 255 4.0 6.0 0.00 0.00 0.00 63 1014.9
20260905231444 80 293 2.0 4.0 0.00 0.00 0.00 64 1014.9
20260905230940 80 278 3.0 6.0 0.00 0.00 0.00 63 1014.9
20260905230438 82 253 2.0 6.0 0.00 0.00 0.00 62 1014.6
20260905225937 81 307 2.0 6.0 0.00 0.00 0.00 63 1014.9
20260905225432 82 348 2.0 7.0 0.00 0.00 0.00 61 1014.6
20260905224927 81 284 4.0 7.0 0.00 0.00 0.00 62 1014.9
20260905224423 82 210 4.0 4.0 0.00 0.00 0.00 61 1014.9
20260905223922 81 248 5.0 6.0 0.00 0.00 0.00 63 1014.9
20260905223421 82 246 4.0 7.0 0.00 0.00 0.00 62 1014.9
20260905222920 81 248 4.0 6.0 0.00 0.00 0.00 62 1014.9
20260905222420 82 262 3.0 4.0 0.00 0.00 0.00 62 1014.9
20260905221916 83 218 2.0 6.0 0.00 0.00 0.00 60 1014.9
20260905221413 82 301 1.0 6.0 0.00 0.00 0.00 62 1015.3
20260905220909 81 225 4.0 6.0 0.00 0.00 0.00 63 1014.9
20260905220404 81 264 2.0 6.0 0.00 0.00 0.00 62 1014.9
20260905215903 82 269 3.0 4.0 0.00 0.00 0.00 61 1015.6
20260905215359 82 224 4.0 4.0 0.00 0.00 0.00 61 1015.3
20260905214855 83 271 3.0 7.0 0.00 0.00 0.00 60 1015.3
20260905214350 82 207 4.0 6.0 0.00 0.00 0.00 60 1015.3
20260905213845 82 226 4.0 4.0 0.00 0.00 0.00 60 1015.3
20260905213341 84 255 4.0 4.0 0.00 0.00 0.00 57 1015.6
20260905212836 82 310 2.0 3.0 0.00 0.00 0.00 60 1015.6
20260905212336 84 251 5.0 7.0 0.00 0.00 0.00 59 1015.6
20260905211830 84 276 4.0 6.0 0.00 0.00 0.00 58 1015.6
20260905211326 82 258 3.0 6.0 0.00 0.00 0.00 61 1015.6
20260905210822 83 299 4.0 6.0 0.00 0.00 0.00 59 1016.0
20260905210322 82 238 2.0 6.0 0.00 0.00 0.00 61 1016.0
20260905205821 81 211 3.0 6.0 0.00 0.00 0.00 62 1015.6
20260905205316 82 268 4.0 6.0 0.00 0.00 0.00 60 1016.0
20260905204815 82 248 4.0 6.0 0.00 0.00 0.00 62 1016.0
20260905204311 82 339 1.0 4.0 0.00 0.00 0.00 62 1016.0
20260905203810 82 155 1.0 6.0 0.00 0.00 0.00 62 1016.3
20260905203306 81 334 1.0 3.0 0.00 0.00 0.00 62 1016.0
20260905202801 81 263 3.0 6.0 0.00 0.00 0.00 63 1016.3
20260905202256 81 239 3.0 6.0 0.00 0.00 0.00 64 1016.0
20260905201752 82 278 5.0 6.0 0.00 0.00 0.00 61 1016.0
20260905201247 81 318 2.0 3.0 0.00 0.00 0.00 63 1016.3
20260905200742 81 337 2.0 3.0 0.00 0.00 0.00 62 1016.3
20260905200237 81 232 6.0 7.0 0.00 0.00 0.00 62 1016.3
20260905195735 82 203 4.0 6.0 0.00 0.00 0.00 61 1016.3
20260905195230 81 307 1.0 7.0 0.00 0.00 0.00 63 1016.6
20260905194726 81 292 2.0 4.0 0.00 0.00 0.00 62 1016.6
20260905194225 82 215 4.0 4.0 0.00 0.00 0.00 62 1016.6
20260905193719 81 300 4.0 4.0 0.00 0.00 0.00 62 1016.6
20260905193214 81 250 4.0 6.0 0.00 0.00 0.00 62 1016.6
20260905192710 81 264 2.0 4.0 0.00 0.00 0.00 62 1016.3
20260905192206 82 223 2.0 6.0 0.00 0.00 0.00 62 1017.0
20260905191706 82 264 2.0 6.0 0.00 0.00 0.00 62 1016.6
20260905191204 81 245 1.0 3.0 0.00 0.00 0.00 62 1016.6
20260905190703 81 299 2.0 4.0 0.00 0.00 0.00 62 1016.6
20260905190202 81 144 2.0 4.0 0.00 0.00 0.00 63 1017.0
20260905185701 82 2 2.0 3.0 0.00 0.00 0.00 62 1017.0
20260905185155 82 212 3.0 3.0 0.00 0.00 0.00 62 1017.0
20260905184655 83 318 1.0 3.0 0.00 0.00 0.00 60 1017.3
20260905184154 82 260 2.0 4.0 0.00 0.00 0.00 60 1017.3
20260905183648 80 222 3.0 3.0 0.00 0.00 0.00 63 1017.3
20260905183143 80 181 2.0 4.0 0.00 0.00 0.00 64 1017.3
20260905182643 81 273 2.0 3.0 0.00 0.00 0.00 63 1017.0
20260905182143 81 130 2.0 3.0 0.00 0.00 0.00 63 1017.6
20260905181638 81 186 2.0 4.0 0.00 0.00 0.00 64 1017.3
20260905181137 80 306 2.0 3.0 0.00 0.00 0.00 64 1017.3
20260905180632 80 101 1.0 4.0 0.00 0.00 0.00 65 1017.6
20260905180127 80 236 2.0 6.0 0.00 0.00 0.00 64 1017.6
20260905175626 80 154 2.0 3.0 0.00 0.00 0.00 64 1017.3
20260905175122 81 224 4.0 6.0 0.00 0.00 0.00 64 1017.3
20260905174617 81 252 1.0 3.0 0.00 0.00 0.00 63 1017.3
20260905174113 81 314 2.0 3.0 0.00 0.00 0.00 57 1017.3
20260905173609 82 64 0.0 1.0 0.00 0.00 0.00 56 1017.3
20260905173104 81 347 0.0 1.0 0.00 0.00 0.00 58 1017.0
20260905172603 80 182 1.0 2.0 0.00 0.00 0.00 59 1017.3
20260905172058 80 20 1.0 1.0 0.00 0.00 0.00 60 1017.3
20260905171554 79 76 3.0 4.0 0.00 0.00 0.00 61 1017.0
20260905171050 79 303 0.0 4.0 0.00 0.00 0.00 62 1017.3
20260905170547 79 261 2.0 2.0 0.00 0.00 0.00 62 1017.3
20260905170042 80 49 0.0 1.0 0.00 0.00 0.00 61 1017.0
20260905165537 78 352 0.0 1.0 0.00 0.00 0.00 64 1017.3
20260905165032 77 317 1.0 3.0 0.00 0.00 0.00 65 1017.0
20260905164526 77 342 1.0 2.0 0.00 0.00 0.00 65 1017.0
20260905164021 78 95 2.0 2.0 0.00 0.00 0.00 63 1017.0
20260905163517 78 12 1.0 3.0 0.00 0.00 0.00 64 1017.0
20260905163013 78 34 0.0 2.0 0.00 0.00 0.00 65 1017.0
20260905162508 77 31 1.0 2.0 0.00 0.00 0.00 66 1017.0
20260905162003 76 48 2.0 2.0 0.00 0.00 0.00 68 1017.0
20260905161503 76 62 2.0 3.0 0.00 0.00 0.00 68 1017.0
20260905161000 78 176 1.0 3.0 0.00 0.00 0.00 66 1017.0
20260905160454 76 7 0.0 1.0 0.00 0.00 0.00 69 1017.0
20260905155954 77 59 0.0 1.0 0.00 0.00 0.00 69 1017.0
20260905155449 77 27 1.0 1.0 0.00 0.00 0.00 70 1017.0
20260905154947 75 349 0.0 1.0 0.00 0.00 0.00 73 1017.0
20260905154442 76 357 0.0 2.0 0.00 0.00 0.00 72 1017.0
20260905153938 77 28 0.0 2.0 0.00 0.00 0.00 70 1017.0
20260905153434 77 348 0.0 0.0 0.00 0.00 0.00 72 1017.0
20260905152934 76 347 0.0 0.0 0.00 0.00 0.00 73 1017.0
20260905152434 75 345 0.0 2.0 0.00 0.00 0.00 74 1017.0
20260905151928 74 14 1.0 2.0 0.00 0.00 0.00 75 1017.0
20260905151425 74 7 0.0 1.0 0.00 0.00 0.00 76 1017.0
20260905150924 75 347 0.0 0.0 0.00 0.00 0.00 75 1017.0
20260905150419 74 4 0.0 0.0 0.00 0.00 0.00 74 1017.0
20260905145915 74 26 0.0 0.0 0.00 0.00 0.00 76 1017.0
20260905145410 74 347 0.0 0.0 0.00 0.00 0.00 77 1016.6
20260905144909 71 17 0.0 0.0 0.00 0.00 0.00 82 1016.6
20260905144405 70 348 0.0 0.0 0.00 0.00 0.00 86 1016.6
20260905143904 69 354 0.0 0.0 0.00 0.00 0.00 90 1016.6
20260905143358 68 354 0.0 0.0 0.00 0.00 0.00 92 1016.3
20260905142857 67 347 0.0 0.0 0.00 0.00 0.00 94 1016.0
20260905142356 66 11 0.0 0.0 0.00 0.00 0.00 94 1016.3
20260905141852 66 343 0.0 0.0 0.00 0.00 0.00 95 1016.3
20260905141347 66 352 0.0 0.0 0.00 0.00 0.00 95 1016.6
20260905140844 66 348 0.0 0.0 0.00 0.00 0.00 95 1016.3
20260905140343 65 336 0.0 0.0 0.00 0.00 0.00 95 1016.3
20260905135842 64 345 0.0 0.0 0.00 0.00 0.00 95 1016.3
20260905135338 64 345 0.0 0.0 0.00 0.00 0.00 95 1016.3
20260905134833 64 334 0.0 0.0 0.00 0.00 0.00 95 1016.0
20260905134326 63 345 0.0 0.0 0.00 0.00 0.00 95 1016.3
20260905133821 63 341 0.0 0.0 0.00 0.00 0.00 95 1016.0
20260905133316 63 341 0.0 0.0 0.00 0.00 0.00 95 1016.0
20260905132815 63 346 0.0 0.0 0.00 0.00 0.00 95 1016.0
20260905132311 63 344 0.0 0.0 0.00 0.00 0.00 95 1016.0
20260905131805 63 348 0.0 0.0 0.00 0.00 0.00 95 1015.6
20260905131301 63 346 0.0 0.0 0.00 0.00 0.00 95 1015.6
20260905130755 63 342 0.0 0.0 0.00 0.00 0.00 95 1016.0
20260905130254 62 346 0.0 0.0 0.00 0.00 0.00 95 1016.0
20260905125750 62 343 0.0 0.0 0.00 0.00 0.00 95 1016.0
20260905125244 62 344 0.0 0.0 0.00 0.00 0.00 95 1016.0
20260905124741 62 342 0.0 0.0 0.00 0.00 0.00 95 1016.0
20260905124237 62 341 0.0 0.0 0.00 0.00 0.00 95 1016.0
20260905123732 63 340 0.0 0.0 0.00 0.00 0.00 95 1015.6
20260905123229 63 336 0.0 0.0 0.00 0.00 0.00 94 1015.6
20260905122729 63 344 0.0 0.0 0.00 0.00 0.00 94 1015.6
20260905122228 63 342 0.0 0.0 0.00 0.00 0.00 94 1015.6
20260905121724 63 343 0.0 0.0 0.00 0.00 0.00 94 1015.6
20260905121220 63 344 0.0 0.0 0.00 0.00 0.00 94 1016.0
20260905120719 63 343 0.0 0.0 0.00 0.00 0.00 94 1015.6
20260905120213 63 349 0.0 0.0 0.00 0.00 0.00 94 1016.0
20260905115708 63 346 0.0 0.0 0.00 0.00 0.00 94 1015.6
20260905115203 63 343 0.0 0.0 0.00 0.00 0.00 94 1016.0
20260905114703 63 348 0.0 0.0 0.00 0.00 0.00 94 1016.0
20260905114201 63 0 0.0 1.0 0.00 0.00 0.00 94 1015.6
20260905113655 63 342 0.0 1.0 0.00 0.00 0.00 94 1015.6
20260905113151 63 343 0.0 0.0 0.00 0.00 0.00 94 1016.0
20260905112650 64 343 0.0 0.0 0.00 0.00 0.00 94 1016.0
20260905112146 64 343 0.0 0.0 0.00 0.00 0.00 94 1015.6
20260905111646 64 348 0.0 0.0 0.00 0.00 0.00 94 1016.0
20260905111145 64 345 0.0 0.0 0.00 0.00 0.00 94 1016.0
20260905110644 64 342 0.0 0.0 0.00 0.00 0.00 94 1016.0
20260905110140 64 343 0.0 0.0 0.00 0.00 0.00 94 1015.6